Home > Time Zones > World Clock > Weather > India > Theni > Past weeks

Flag for India Weather past 2 weeks in Theni, Tamil Nadu, India

Now
79 °F

Broken clouds.


Feels Like: 81 °F
Forecast: 64 / 90 °F
Wind: 10 mph from East

Location: Coimbatore / Peelamedu

Current Time: Jan 28, 2015 at 12:23:19 PM

Latest Report: Jan 28, 2015 at 11:30 AM


Visibility: 2 mi

Pressure: 29.98 "Hg

Humidity: 61%

Dew point: 64 °F

Location of TheniLocation

Historic Weather in Theni — Graph

°F

Theni temperature yesterday

Maximum temperature yesterday: 88 °F (at 3:30 PM)
Minimum temperature yesterday: 68 °F (at 5:30 AM)
Average temperature yesterday: 78 °F

Past Weeks' High & Low Weather Summary

 TemperatureHumidityPressure
High90 °F (Jan 25, 3:30 PM)94% (Jan 14, 7:30 AM)30.15 "Hg (Jan 14, 7:30 AM)
Low64 °F (Jan 14, 6:00 AM)22% (Jan 22, 5:30 PM)29.89 "Hg (Jan 13, 3:30 PM)
Average78 °F56%30.00 "Hg
* Reported Jan 13 2:30 PM — Jan 28 11:00 AM, Theni, Weather by CustomWeather, © 2014

Note: Actual official high and low records may vary slightly from our data, if they occured in-between our weather recording intervals... More about our weather records

Advertising

Theni weather history for previous 24 hours

 ConditionsComfort  
Time TempWeatherWind HumidityBarometerVisibility
11:00 AM
Jan 28
79 °FScattered clouds.7 mph61%30.01 "Hg2 mi
10:30 AM79 °FScattered clouds.6 mph58%30.01 "Hg2 mi
10:00 AM77 °FScattered clouds.5 mph65%30.01 "Hg2 mi
9:00 AM73 °FFog.7 mph78%30.01 "Hg1 mi
8:30 AM73 °FFog.6 mph78%30.01 "Hg1 mi
7:00 AM70 °FFog.3 mph88%29.95 "Hg1 mi
6:00 AM72 °FFog.3 mph83%29.95 "Hg2 mi
5:30 AM72 °FFog.3 mph83%29.95 "Hg2 mi
4:30 AM72 °FHaze.3 mph83%29.92 "Hg3 mi
3:30 AM72 °FHaze.5 mph83%29.92 "Hg3 mi
2:30 AM72 °FHaze.3 mph83%29.95 "Hg3 mi
1:30 AM73 °FHaze.5 mph78%29.98 "Hg3 mi
11:30 PM
Jan 27
75 °FHaze.3 mph69%29.98 "Hg3 mi
10:30 PM75 °FHaze.5 mph69%29.98 "Hg3 mi
10:00 PM77 °FHaze.9 mph61%29.98 "Hg3 mi
9:30 PM77 °FHaze.6 mph54%29.98 "Hg3 mi
9:00 PM79 °FHaze.3 mph54%29.95 "Hg3 mi
8:30 PM79 °FHaze.3 mph54%29.95 "Hg3 mi
8:00 PM79 °FHaze.5 mph54%29.95 "Hg3 mi
7:00 PM81 °FPassing clouds.3 mph48%29.92 "Hg4 mi
6:30 PM82 °FPassing clouds.6 mph42%29.92 "Hg4 mi
6:00 PM84 °FPassing clouds.7 mph37%29.92 "Hg4 mi
5:30 PM84 °FPassing clouds.9 mph33%29.89 "Hg4 mi
5:00 PM86 °FPassing clouds.9 mph31%29.89 "Hg5 mi
4:30 PM88 °FPassing clouds.8 mph29%29.89 "Hg5 mi
3:30 PM88 °FPassing clouds.12 mph29%29.89 "Hg5 mi
3:00 PM86 °FPassing clouds.14 mph33%29.89 "Hg5 mi
2:30 PM86 °FPassing clouds.12 mph33%29.92 "Hg5 mi
2:00 PM84 °FPassing clouds.10 mph40%29.92 "Hg5 mi
1:30 PM84 °FPassing clouds.5 mph37%29.95 "Hg5 mi
1:00 PM82 °FPassing clouds.9 mph42%29.98 "Hg5 mi
12:30 PM82 °FPassing clouds.14 mph42%29.98 "Hg5 mi
Weather by CustomWeather, © 2014

See weather overviewHow to use our weather pages